Home   Weather   Varel   Past weeks
Flag for Germany

Past Weather in Varel, Lower Saxony, Germany — Yesterday and Last 2 Weeks

Now
43 °F

Fog.


Feels Like: 41 °F
Forecast: 68 / 47 °F
Wind: 3 mph from Southwest

Location: Wittmundhaven

Current Time: Sep 20, 2019 at 7:36:54 am

Latest Report: Sep 20, 2019 at 6:20 am


Visibility: N/A

Pressure: 30.39 "Hg

Humidity: 93%

Dew Point: 41 °F

Location of VarelLocation

Past Weather in Varel — Graph

°F

Varel Temperature Yesterday

Maximum temperature yesterday: 59 °F (at 12:20 pm)
Minimum temperature yesterday: 45 °F (at 11:20 pm)
Average temperature yesterday: 53 °F

High & Low Weather Summary for the Past Weeks

 TemperatureHumidityPressure
High68 °F (Sep 12, 1:20 pm)100% (Sep 7, 7:20 am)30.57 "Hg (Sep 7, 7:20 am)
Low43 °F (Sep 20, 4:20 am)48% (Sep 17, 12:20 pm)29.77 "Hg (Sep 5, 6:20 am)
Average56 °F78%30.15 "Hg
* Reported Sep 5 5:20 am — Sep 20 5:20 am, Varel. Weather by CustomWeather, © 2019

Note: Actual official high and low records may vary slightly from our data, if they occured in-between our weather recording intervals... More about our weather records

Advertising

Varel Weather History for the Previous 24 Hours

Scroll right to see more
 ConditionsComfort  
Time TempWeatherWind HumidityBarometerVisibility
5:20 am
Fri, Sep 20
43 °FFog.3 mph93%30.39 "HgN/A
4:20 am43 °FPassing clouds.3 mph93%30.39 "HgN/A
3:20 am45 °FPassing clouds.3 mph87%30.42 "HgN/A
2:20 am45 °FPassing clouds.3 mph87%30.42 "HgN/A
1:20 am45 °FPassing clouds.2 mph87%30.42 "HgN/A
12:20 am45 °FPassing clouds.2 mph93%30.42 "HgN/A
11:20 pm
Thu, Sep 19
45 °FPassing clouds.2 mph87%30.42 "HgN/A
10:20 pm46 °FPassing clouds.3 mph87%30.42 "HgN/A
9:20 pm48 °FPassing clouds.2 mph82%30.42 "HgN/A
8:20 pm50 °FPassing clouds.2 mph76%30.42 "HgN/A
7:20 pm54 °FScattered clouds.5 mph67%30.42 "HgN/A
6:20 pm57 °FScattered clouds.8 mph59%30.42 "HgN/A
5:20 pm57 °FScattered clouds.9 mph55%30.42 "HgN/A
4:20 pm59 °FScattered clouds.10 mph51%30.42 "HgN/A
3:20 pm59 °FBroken clouds.9 mph51%30.42 "HgN/A
2:20 pm59 °FBroken clouds.12 mph48%30.42 "HgN/A
1:20 pm57 °FBroken clouds.9 mph51%30.45 "HgN/A
12:20 pm59 °FBroken clouds.12 mph51%30.42 "HgN/A
11:20 am57 °FPartly sunny.13 mph59%30.42 "HgN/A
10:20 am57 °FPartly sunny.12 mph51%30.39 "HgN/A
9:20 am54 °FPartly sunny.6 mph67%30.39 "HgN/A
8:20 am50 °FScattered clouds.7 mph71%30.39 "HgN/A
7:20 am48 °FScattered clouds.5 mph71%30.36 "HgN/A
Weather by CustomWeather, © 2019

See weather overview